TITAN 3C TRANSTAGE DEB

Satellite information

Favourite Embed

Satellite Type and Status

DEBRISIN ORBIT

Key statistics

Satellite TITAN 3C TRANSTAGE DEB at a glance.

Uptime

21924

Days in orbit

Revolutions

≈ 14.6

Per day

Orbit

LEO

Low Earth Orbit

Inclination

32.2

Latest

Satellite identification and parameters

Extended collection of information and parameters for TITAN 3C TRANSTAGE DEB.

Object identification

Identified? True

Debris? True

Object name: TITAN 3C TRANSTAGE DEB

International designator: 1965-082BX

Object number (NORAD): 1716

Object ID (CCSDS): 1716

Country: UNITED STATES OF AMERICA (US)

Current information (Y/N): Y

RCS size: LARGE

Orbital parameters

Period: 98.818 minutes

Inclination: 32.1898 deg

SMA: 7080.282 km

Apoapsis: 729.097 km

Periapsis: 675.197 km

RAAN: 253.7093 deg

Eccentricy: 0.00380632

Argument of periapsis: 6.4363 deg

Mean anomaly: 353.6765 deg

Mean motion: 14.57226057 rev/day

Mean motion (dot): 0.00001362 rev/day2

B* drag term: 0.00028618642 1/REarth

Two-line elements (TLE)

Creation date: Oct. 24, 2025, 2:48 a.m.

Reference frame: TEME

Reference center: EARTH

Epoch: Oct. 23, 2025, 9:56 p.m. UTC

TLE line 0: 0 TITAN 3C TRANSTAGE DEB

TLE line 1: 1 01716U 65082BX 25296.91404291 .00001362 00000-0 28619-3 0 9991

TLE line 2: 2 01716 32.1898 253.7093 0038063 6.4363 353.6765 14.57226057174005

Live tracking on map

Real-time ground track for satellite TITAN 3C TRANSTAGE DEB.

In-orbit conjunctions

A list of the most updated potential collisions computed for object TITAN 3C TRANSTAGE DEB.

Target Orbit TCA Probability of collision Miss distance Type
CZ-4 DEB SSO 2024-11-14 04:19:23 0.0001848886 833.0 (m) DEBRIS
H-2A DEB SSO 2024-07-30 13:00:04 0.0001957731 142.0 (m) DEBRIS

Associated space launch

The OV2 (Orbiting Vehicle 2) series satellites were originally built for project ARENTS (Advanced Research Environmental Test Satellite), which was intended to obtain supporting data for the Vela program. After the cancellation of the ARENTS program, the already built hardware was reused for OV2, a low-cost series of experimental satellites, which were to be launched for free on Titan-3C test flights to very different orbits.

TITAN 3C TRANSTAGE DEB was lifted into orbit during the mission ‘Titan IIIC | OV2-1’, on board a Titan IIIC space rocket.

The launch took place on Oct. 15, 1965, 5:23 p.m. from Space Launch Complex 40.

For more information about the launch, click the button.

Launch to space Titan IIIC | OV2-1
Titan IIIC | OV2-1

Agency: N/A

Status: Launch Successful

Launch date: Oct. 15, 1965, 5:23 p.m. UTC

Rocket: Titan IIIC

Launch pad: Space Launch Complex 40

Location: Cape Canaveral SFS, FL, USA

...

Latest news about this satellite

There are no fresh news available about this satellite. Check back as we update our databases every day.


Newsletter sign-up

Weekly statistics, charts and insights to help you stay on top of the space industry.